[Date Prev][Date Next][Thread Prev][Thread Next][Date Index][Thread Index]
[jamsat-news:587] jas2info #43
=========================   最新情報   ==============================
        Last updated :Sat,12-July-97 10:30 (JST) #43
===================================================================
   
     衛星情報 FOシリーズの軌道要素、テレメトリ、QSOの状況等をま
   とめてみました.
  1)FO−29(ふじ3号)は7月12日(土)の9:29(JST)の
     パスではJAアナログモードに変わり、JARLのスケジュールが
     変更されデジトーカー運用となっております.
       マッハ20に近い地上では考えられない宇宙速度で移動する衛星から
     発せられるFM電波にのって、多くの皆さんがFM受信機で女性アナウ
     ンサーによる「This is JAS−2」の音声と、「カッコウ」の
     鳴き声を楽しんでおられます. 
    
  ・軌道要素1:「jamsatーkeps:598」より
                SB KEPS @ AMSAT  $ORBS-185.N
                2Line Orbital Elements 185.AMSAT
      HR AMSAT ORBITAL ELEMENTS FOR AMATEUR SATELLITES IN NASA FORMAT
      FROM WA5QGD FORT WORTH,TX July 4, 1997
      SEND SUBSCRIBE/UNSUBSCRIBE TO listserv@amsat.org ONLY
      ID: ORBS-185.N 
   DECODE 2-LINE ELSETS WITH THE FOLLOWING KEY:
  1 AAAAAU 00  0  0 BBBBB.BBBBBBBB  .CCCCCCCC  00000-0  00000-00    DDDZ
  2 AAAAA EEE.EEEE FFF.FFFF GGGGGGG HHH.HHHH III.IIII JJ.JJJJJJJJ KKKKKZ
  KEY: A-CATALOGNUM B-EPOCHTIME C-DECAY D-ELSETNUM E-INCLINATION  F-RAAN
  G-ECCENTRICITY H-ARGPERIGEE I-MNANOM J-MNMOTION K-ORBITNUM  Z-CHECKSUM
   FO-29
   1 24278U 96046B   97182.56526754 -.00000037  00000-0 -35978-5 0   894
   2 24278  98.5390 221.8367 0351748 148.8459 213.4062 13.52631856 43066
   
  ・軌道要素:「jamsatーkeps:599」より
           SB KEPS @ AMSAT  $ORBS-185.O
           Orbital Elements  185.OSCAR
           HR AMSAT ORBITAL ELEMENTS FOR OSCAR SATELLITES
           FROM WA5QGD FORT WORTH,TX July 4, 1997
           SEND SUBSCRIBE/UNSUBSCRIBE TO listserv@amsat.org ONLY
           BID: ORBS-185.O
           TO ALL RADIO AMATEURS BT
  Satellite: FO-29
  Catalog number: 24278
  Epoch time:      97182.56526754
  Element set:      89
  Inclination:       98.5390 deg
  RA of node:       221.8367 deg
  Eccentricity:    0.0351748
  Arg of perigee:   148.8459 deg
  Mean anomaly:     213.4062 deg
  Mean motion:   13.52631856 rev/day
  Decay rate:       -3.7e-07 rev/day^2
  Epoch rev:            4306
  Checksum:              341
 -----------------------------------------------------------
   *FO−29 のFMデジトーカについて
 
  1) [jamsat-bb:2794]にJH1QQN局飯野さんとJH4DHX局
      大谷さんが投稿されてます、JAS−2のデジトーカとQSOに
      ついてご紹介します.
  
      73! de JH1QQN Ken.Iino
      e-mail: jh1qqn@jamsat.or.jp
      私も昨日聞きました、状況は同じです。
      アンテナは9エレ八木の垂直です。
      やはり浅いフエージングでの入感でした。
      LOSするちょっと前に1分程止まりましたが、
      これも仕様なのかなと考えました。
      打ち上げ前に聞かせてもらった感じとほとんど
      同じでした。
      先週はJA6BX(江崎OM)とFO−29でQSOできました。
      快調に働いているようで安心しております。
      来週はデジタル系の運用も予定されているので、
      久しぶりにトライしてみます。
      レポートは後日、それでは。
 ----
      差出人 : 大谷 芳充 <MXL01506@niftyserve.or.jp>
      宛先 : jamsat-bb@jamsat.or.jp
      送信日時 : 1997年 7月 6日 日曜日 9:17
      件名 : [jamsat-bb:2791] JAS-2 DIGITLKR
     JAS−2のディジトーカが、久しぶりに昨日からオンされている
   とアナウンスされていましたので、早速今日の夕方のパス#4358で
   ワッチしてみました.
   「This is JAS-2 カッコー!」とFBなYLさんの声に続いて送信されて
   いました信号は予想時刻どおりにAOSし、周波数は少し高めの435.919
   MHz辺りから入感しだしましたが、TCA付近では信号はかなり強力でした。
   受信は8エレ八木(垂直)を使用した直線偏波系ですが、浅いフェーディ
   ングを伴っていました。余談になりますが、同周波数を暫くワッチしてい
   るとJAS−2からの信号とは知らないらしい局が、カッコーカッコーと
   鳴いているが・・・と話していました。
   これは、ごく一般の設備をもったアマチュア局でも十分に衛星通信が可能
   な状態にあることを端的に示しています。ディジトーカ運用を通して、
   こうした局にこそ衛星通信の面白さがPRできれば、一番効果的ではない
   かと思いながら聞いていました。
   前回のEグイスと同様、大変きれいに聞こえていました。
 JH4DHX/・A HREF="mailto:R ・>R ・/A>蜥J  Jul.5 '97   
---------------------------------------------------------------  
 *FO−29(ふじ3号)の7月8日(火)のJAアナログモードで運用中の
   テレメトリの一部分です.
    (熊本市)
    AS4399C  8July97
    JST 19:41 ー 19:58
    Freq. 435.804 ー786 MHz    USB    RS 57〜9
                                                      B0 C5 B4 B3 B4 B4 B0 
HI HI B6 C7 90 DD 00 75 E5 5A 09 37  5 AB 1  5F 92 8F B0 87 B4 B3 B4 B4 B0 
HI HI B6 C7 90 DD 00 00 E6 5A 09 32 84 AF 6B 60 92 8F B0 86 B4 B2 B4 B4 B0 
HI HI B6 C7 90 DD 00 01 CE 5A 09 33 8B B1 6C 60 91 8F B0 7C B4 B2 B4 B4 B0 
HI HI B6 C7 90 DD 00 02 AB 5A 09 11 8E AF 74 5F 91 8F B0 74 B4 B2 B4 B4 B0 
HI HI B6 C7 90 DD 00 03 93 5A 09 14 90 AB 72 5F 92 8F B0 89 B4 B2 B4 B4 B0 
HI HI B6 C7 99 D6 52 58 9  5A          A6 72 5F 92 8F B0 68 B4 B2 B4 B4 B0 
HI HI B6 C7 90 D8 00 14 A6 5A 09 1F  8 A5 75 5F 92 8F B0 96 B4 B2 B4 B4 B0 
HI HI B 6 C7 97
=====================================================================
 2)FO-20(ふじ2号): JAモードの運用で順調に作動しています.
     アナログモードにてのQSOや思わぬDXが楽しめます.
  ・軌道要素1 :出典は「ふじ3号」に同じ.   
 
   FO-20
   1 20480U 90013C   97181.90991370 -.00000003  00000-0  68907-4 0 09832
   2 20480 099.0473 140.9181 0540958 346.4115 012.2902 12.83238560346464
  ・軌道要素2 :出典は「ふじ3号」に同じ.   
 
  Satellite: FO-20
  Catalog number: 20480
  Epoch time:      97181.90991370
  Element set:    0983
  Inclination:      099.0473 deg
  RA of node:       140.9181 deg
  Eccentricity:    0.0540958
  Arg of perigee:   346.4115 deg
  Mean anomaly:     012.2902 deg
  Mean motion:   12.83238560 rev/day
  Decay rate:       -3.0e-08 rev/day^2
  Epoch rev:           34646
  Checksum:              304
   ----------------------------------------------------------------
 *FO−20 JAアナログモードでRS 59程度で(受信感度はア
   ンテナより見て約125db)非常に強力な信号で受信できています。
   衛星の現在の状態を符号化し、知らせるビーコン波にのっているテレ
   メトリです.
    7月3日(木) JST  15 :00 のパスの 一部分です。
   (TNCで解読)
 AS34672C  3July97      CW   RS 59+10db
 JST 15:00 - 15:16  Freq.435.804 〜 .787MHz 
 HI HI 142 148 170 171 285 284 253 262 353 354 
       353 354 401 435 402 400 500 531 500 500 
 HI HI 146 148 170 171 285 284 254 262 353 354 
       353 354 401 435 402 400 500 531 500 500 
 HI HI 148 148 170 171 285 284 252 262 353 354 
       353 354 401 435 402 400 500 531 500 500 
 HI HI 149 148 170 171 285 284 254 262 353 354 
       353 354 401 435 402 400 500 531 500 500 
 HI HI 149 148 170 171 285 284 253 262 353 354 
       353 353 401 435 402 400 500 531 500 500 
 HI HI 148 148 170 171 285 284 252 262 353 354 
       353 353 401 435 402 400 500 531 500 500   
 HI HI 145 148 170 171 285 284 255 262 353 354 
       353 353 401 435 402 400 500 530 500 500 
 HI HI 142 148 170 171 285 284 250 262 
 -----------------------------------------------------------------------
 *FOー20のJAモードでアナログQSO
   [jamsat-bb:2429]に投稿されたJA6BX局江崎昌男氏のQSOの状況です.
     2/12日の18:02JSTに、UA4NM Kirov の VladさんとFO-20経由でQSO
   しました.
  当方はLOS寸前で、当局のCWでのCQに答えてくれたものですが、FO-20で
  は初めてのUA4です.
  * 後日、江崎氏のコメント:                                  
    昨日QSOできたUA4NMは1987年にAO−10でQSOしていま
  すが、FO−20/29のような低軌道衛星では、昨年のOH5LK以来の
  DXで、大変うれしく思います.
                         73, de JA6BX - Y. Esaki 34122731@people.or.jp 
                                                or, ja6bx@jamsat.or.jp          
=========================   JARL運用情報   =========================
   [jamsatーbb:2790」にJJ1WTK局坂本さんより、JAS−2の運pスケジュ
   ールについて記載されていましたので、ご紹介します.
  JARL Newsの7月号に、FO-29/FO-20の向こう3ケ月分のスケジュールが載ってい
 ました。
     ■ FO-29 ■
      7月  4日(金)	09:13z(18:13j)	デジトーカー
      7月  8日(火)	09:05z(18:05j)	JA
      7月11日(金)	09:51z(18:51j)	JD1200
      7月18日(金)	00:20z(09:20j)	JD9600
      7月25日(金)	09:23z(18:23j)	JA
      8月  1日(金)	08:17z(17:17j)	JD1200
      8月  8日(金)	00:30z(09:30j)	JD9600
      8月15日(金)	01:08z(10:08j)	JA
      8月22日(金)	08:26z(17:26j)	JD1200
      8月29日(金)	00:40z(09:40j)	JD9600
      9月  5日(金)	01:18z(10:18j)	JA
      9月12日(金)	00:13z(09:13j)	JD1200
      9月19日(金)	00:51z(09:51j)	JD9600
      9月26日(金)	08:09z(17:09j)	JA
*切替時刻はUTCで表示しています.カッコ内の時刻は
   日本時間JSTです.
   JA:アナログ系運用
   JD:ディジタル系運用
       *1200bps PSK   メールボックス運用(SSB)
       *9600bps FSK   メールボックス運用(FM)
       *デジトーカ         FM音声メッセージ送信
        ■ ふじ2号 ■
    「ふじ2号」はアナログ系の連続運用とします.   
                                               
   =============   JAS-2 (ふじ3号)と現在までの情報   ===========
  
  A.電話によるふじ3号の運用情報
      社団法人日本アマチュア連盟によるサービス
           TEL .   03− 3942 − 1000
   
  B.アマチュア無線FAXサービス
      JARLによるふじ3号の軌道情報(オービットカレンダー)
         FAX No.  03− 3233 −0055 
  C.WWWブラウザで情報を簡単に見れる人のためにJAS−2
     ふじ3号の衛星としての運用されるまでの名前)の概要、打ち上げ
     までの状況、運用中における状況を説明したホームページを紹介し
     ておきます.
    1)社団法人日本アマチュア無線連盟(JARL)のホームページ
          http://www.jarl.or.jp/
    2)宇宙開発事業団(NASDA)ホームページ 
          http://www.nasda.go.jp/
         打上げ衛星 :地球観測プラットフォーム技術衛星(ADEOS) 
                       アマチュア衛星3号(JAS-2)
          http://yyy.tksc.nasda.go.jp/Home/Press/Press-j/jas-2_j.html
                                                       
  D.JAMSATによる軌道情報の活用
        JAMSATのホームページまたはjamsat−kepsの軌道要素より
      衛星の軌道情報を得る.
      
     JAMSATホームページURL    http://www.jamsat.or.jp
       上記ホームページでは各地で行われるアマチュア衛星に関する
      ミューティングのお知らせや世界のアマチュア衛星に関する情報が
      満載されています.
   -------------------------------------------------------------------
      JAMSATのメンバーのご協力によりJH6MME(高山 秀造)が
    執筆・編集を担当しております.ご指摘の意見、疑問やこのようにしたら
    というアイデアがありましたら小さなことでもかまいませんので気軽に下
    記アドレスまでご連絡ください.jamsat−newsからjas2
    infoへの転載をJH4PHW局坂井さんに担当して頂いております.
                Eーmail :   jh6mme@jamsat.or.jp : jh4phw@jamsat.or.jp             
  ==============================   END  ============================